Location: lozzo di cadore
(46.4899°N, 12.4508°E)
Time: 22:56:54
(UTC+02:00)

BlueWalker 3 - Visible Passes

Search period start: 21 April 2024 00:00
Search period end: 01 May 2024 00:00
Orbit: 485 x 495 km, 53.2° (Epoch: 21 April)

Date Brightness Start Highest point End Pass type
(mag) Time Alt. Az. Time Alt. Az. Time Alt. Az.
21 Apr 2.6 21:21:32 10° WSW 21:25:17 55° NNW 21:29:04 10° NE visible
21 Apr 3.8 23:00:42 10° WNW 23:04:04 29° N 23:05:29 23° NE visible
22 Apr 4.8 00:39:20 10° NW 00:39:54 13° NW 00:39:54 13° NW visible
22 Apr 2.6 20:56:50 10° WSW 21:00:35 57° NNW 21:04:22 10° NE visible
22 Apr 3.8 22:35:59 10° WNW 22:39:22 29° N 22:41:47 16° NE visible
23 Apr 4.3 00:14:39 10° NW 00:16:11 21° NW 00:16:11 21° NW visible
23 Apr 3.7 22:11:15 10° WNW 22:14:38 29° N 22:17:57 10° ENE visible
23 Apr 3.8 23:49:56 10° NW 23:52:22 30° NNW 23:52:22 30° NNW visible
24 Apr 3.7 21:46:30 10° WNW 21:49:53 29° N 21:53:17 10° ENE visible
24 Apr 3.3 23:25:12 10° NW 23:28:28 37° N 23:28:28 37° N visible
25 Apr 3.7 21:21:42 10° WNW 21:25:07 30° N 21:28:31 10° ENE visible
25 Apr 3.1 23:00:27 10° NW 23:04:02 37° NNE 23:04:31 35° NE visible
26 Apr 4.8 00:38:40 10° WNW 00:38:55 12° WNW 00:38:55 12° WNW visible
26 Apr 3.7 20:56:55 10° WNW 21:00:19 30° N 21:03:44 10° ENE visible
26 Apr 3.2 22:35:40 10° NW 22:39:14 36° NNE 22:40:32 27° NE visible
27 Apr 4.4 00:13:53 10° WNW 00:14:56 18° WNW 00:14:56 18° WNW visible
27 Apr 3.2 22:10:52 10° NW 22:14:25 35° NNE 22:16:31 20° ENE visible
27 Apr 3.8 23:49:05 10° WNW 23:50:55 27° WNW 23:50:55 27° WNW visible
28 Apr 3.2 21:46:03 10° NW 21:49:35 35° NNE 21:52:29 14° ENE visible
28 Apr 2.9 23:24:15 10° WNW 23:26:53 42° WNW 23:26:53 42° WNW visible
29 Apr 3.3 21:21:12 10° NW 21:24:43 34° NNE 21:28:14 10° E visible
29 Apr 2.0 22:59:24 10° WNW 23:02:51 69° W 23:02:51 69° W visible
30 Apr 3.3 20:56:20 10° NW 20:59:50 33° NNE 21:03:20 10° E visible
30 Apr 1.7 22:34:33 10° WNW 22:38:22 84° SSW 22:38:48 68° SE visible
